Time,TemperatureF,DewpointF,PressureIn,WindDirection,WindDirectionDegrees,WindSpeedMPH,WindSpeedGustMPH,Humidity,HourlyPrecipIn,Conditions,Clouds,dailyrainin,SoftwareType,DateUTC
2013-06-10 00:05:00,77.5,75.0,30.13,South,191,0.0,5.0,92,0.00,,,0.00,weatherlink.com 1.10,2013-06-10 04:05:00,
2013-06-10 00:20:00,77.4,75.0,30.13,SSW,205,1.0,6.0,93,0.00,,,0.00,weatherlink.com 1.10,2013-06-10 04:20:00,
2013-06-10 00:35:00,77.4,75.0,30.12,WSW,240,1.0,4.0,92,0.00,,,0.00,weatherlink.com 1.10,2013-06-10 04:35:00,
2013-06-10 00:51:00,77.4,75.0,30.12,SE,143,0.0,6.0,93,0.00,,,0.00,weatherlink.com 1.10,2013-06-10 04:51:00,
2013-06-10 01:05:00,77.4,75.0,30.12,South,181,1.0,6.0,92,0.00,,,0.00,weatherlink.com 1.10,2013-06-10 05:05:00,
2013-06-10 01:20:00,77.4,75.0,30.11,South,173,2.0,5.0,93,0.00,,,0.00,weatherlink.com 1.10,2013-06-10 05:20:00,
2013-06-10 01:35:00,77.4,75.0,30.11,SW,216,3.0,6.0,93,0.00,,,0.00,weatherlink.com 1.10,2013-06-10 05:35:00,
2013-06-10 01:50:00,77.4,75.0,30.10,SSW,213,1.0,5.0,93,0.00,,,0.00,weatherlink.com 1.10,2013-06-10 05:50:00,
2013-06-10 02:05:00,77.1,75.0,30.10,WSW,257,2.0,6.0,94,0.00,,,0.00,weatherlink.com 1.10,2013-06-10 06:05:00,
2013-06-10 02:20:00,76.7,75.0,30.10,WSW,247,1.0,4.0,95,0.03,,,0.03,weatherlink.com 1.10,2013-06-10 06:20:00,
2013-06-10 02:35:00,76.4,75.0,30.09,WSW,247,0.0,3.0,96,0.03,,,0.03,weatherlink.com 1.10,2013-06-10 06:35:00,
2013-06-10 02:50:00,76.2,75.0,30.09,WSW,258,2.0,4.0,96,0.03,,,0.03,weatherlink.com 1.10,2013-06-10 06:50:00,
2013-06-10 03:05:00,76.0,75.0,30.09,West,271,0.0,3.0,96,0.03,,,0.03,weatherlink.com 1.10,2013-06-10 07:05:00,
2013-06-10 03:20:00,75.7,75.0,30.09,SW,216,0.0,2.0,96,0.00,,,0.03,weatherlink.com 1.10,2013-06-10 07:20:00,
2013-06-10 03:35:00,75.5,74.0,30.09,WSW,248,0.0,2.0,96,0.00,,,0.03,weatherlink.com 1.10,2013-06-10 07:35:00,
2013-06-10 03:50:00,75.4,74.0,30.09,SSW,201,1.0,2.0,96,0.00,,,0.03,weatherlink.com 1.10,2013-06-10 07:50:00,
2013-06-10 04:05:00,75.3,74.0,30.09,East,93,1.0,4.0,96,0.00,,,0.03,weatherlink.com 1.10,2013-06-10 08:05:00,
2013-06-10 04:20:00,75.5,74.0,30.09,WSW,241,2.0,4.0,95,0.00,,,0.03,weatherlink.com 1.10,2013-06-10 08:20:00,
2013-06-10 04:35:00,75.6,74.0,30.08,SW,232,1.0,6.0,95,0.00,,,0.03,weatherlink.com 1.10,2013-06-10 08:35:00,
2013-06-10 04:50:00,75.6,74.0,30.08,WSW,250,0.0,7.0,95,0.00,,,0.03,weatherlink.com 1.10,2013-06-10 08:50:00,
2013-06-10 05:05:00,75.5,74.0,30.08,West,271,1.0,4.0,95,0.00,,,0.03,weatherlink.com 1.10,2013-06-10 09:05:00,
2013-06-10 05:20:00,75.7,74.0,30.08,West,278,0.0,3.0,95,0.00,,,0.03,weatherlink.com 1.10,2013-06-10 09:20:00,
2013-06-10 05:35:00,75.7,74.0,30.08,South,177,2.0,3.0,95,0.00,,,0.03,weatherlink.com 1.10,2013-06-10 09:35:00,
2013-06-10 05:50:00,75.7,74.0,30.08,SSW,196,1.0,6.0,95,0.00,,,0.03,weatherlink.com 1.10,2013-06-10 09:50:00,
2013-06-10 06:05:00,75.6,74.0,30.08,SE,139,1.0,7.0,95,0.00,,,0.03,weatherlink.com 1.10,2013-06-10 10:05:00,
2013-06-10 06:20:00,75.5,74.0,30.08,West,268,1.0,2.0,95,0.00,,,0.03,weatherlink.com 1.10,2013-06-10 10:20:00,
2013-06-10 06:35:00,75.4,74.0,30.08,SW,236,2.0,5.0,95,0.00,,,0.03,weatherlink.com 1.10,2013-06-10 10:35:00,
2013-06-10 06:51:00,75.4,74.0,30.08,SSW,201,0.0,3.0,95,0.00,,,0.03,weatherlink.com 1.10,2013-06-10 10:51:00,
2013-06-10 07:06:00,75.6,74.0,30.09,SSW,209,1.0,5.0,95,0.00,,,0.03,weatherlink.com 1.10,2013-06-10 11:06:00,
2013-06-10 07:21:00,76.6,75.0,30.09,SW,230,0.0,4.0,94,0.00,,,0.03,weatherlink.com 1.10,2013-06-10 11:21:00,
2013-06-10 07:36:00,77.7,76.0,30.09,SE,143,1.0,6.0,93,0.00,,,0.03,weatherlink.com 1.10,2013-06-10 11:36:00,
2013-06-10 07:51:00,77.9,76.0,30.09,WNW,284,0.0,4.0,92,0.00,,,0.03,weatherlink.com 1.10,2013-06-10 11:51:00,
2013-06-10 08:06:00,78.6,76.0,30.10,WSW,258,4.0,4.0,91,0.00,,,0.03,weatherlink.com 1.10,2013-06-10 12:06:00,
2013-06-10 08:21:00,79.0,76.0,30.10,West,265,2.0,4.0,89,0.00,,,0.03,weatherlink.com 1.10,2013-06-10 12:21:00,
2013-06-10 08:36:00,80.1,76.0,30.09,West,281,0.0,7.0,88,0.00,,,0.03,weatherlink.com 1.10,2013-06-10 12:36:00,
2013-06-10 08:51:00,81.2,76.0,30.09,WSW,254,3.0,10.0,85,0.00,,,0.03,weatherlink.com 1.10,2013-06-10 12:51:00,
2013-06-10 09:06:00,79.9,76.0,30.10,SW,236,3.0,8.0,88,0.01,,,0.04,weatherlink.com 1.10,2013-06-10 13:06:00,
2013-06-10 09:21:00,78.4,75.0,30.09,WSW,241,5.0,7.0,89,0.01,,,0.04,weatherlink.com 1.10,2013-06-10 13:21:00,
2013-06-10 09:51:00,80.7,77.0,30.09,SSE,151,1.0,10.0,87,0.01,,,0.04,weatherlink.com 1.10,2013-06-10 13:51:00,
2013-06-10 10:21:00,83.1,77.0,30.08,West,278,1.0,9.0,81,0.00,,,0.04,weatherlink.com 1.10,2013-06-10 14:21:00,
2013-06-10 10:36:00,83.9,76.0,30.08,SSW,206,4.0,8.0,78,0.00,,,0.04,weatherlink.com 1.10,2013-06-10 14:36:00,
2013-06-10 11:06:00,84.7,76.0,30.08,WSW,239,5.0,8.0,75,0.00,,,0.04,weatherlink.com 1.10,2013-06-10 15:06:00,
2013-06-10 11:21:00,84.3,76.0,30.08,SW,226,1.0,7.0,76,0.00,,,0.04,weatherlink.com 1.10,2013-06-10 15:21:00,
2013-06-10 11:36:00,83.6,76.0,30.08,WSW,250,1.0,5.0,77,0.00,,,0.04,weatherlink.com 1.10,2013-06-10 15:36:00,
2013-06-10 11:51:00,83.9,76.0,30.07,South,177,2.0,4.0,77,0.00,,,0.04,weatherlink.com 1.10,2013-06-10 15:51:00,
2013-06-10 12:06:00,84.7,77.0,30.07,West,275,0.0,7.0,77,0.00,,,0.04,weatherlink.com 1.10,2013-06-10 16:06:00,
2013-06-10 12:21:00,85.4,76.0,30.06,SSE,155,1.0,8.0,73,0.00,,,0.04,weatherlink.com 1.10,2013-06-10 16:21:00,
2013-06-10 12:36:00,85.3,76.0,30.05,SW,233,1.0,7.0,74,0.00,,,0.04,weatherlink.com 1.10,2013-06-10 16:36:00,
2013-06-10 12:51:00,85.6,76.0,30.05,WSW,255,2.0,6.0,72,0.00,,,0.04,weatherlink.com 1.10,2013-06-10 16:51:00,
2013-06-10 13:06:00,84.7,78.0,30.04,West,265,1.0,8.0,80,0.00,,,0.04,weatherlink.com 1.10,2013-06-10 17:06:00,
2013-06-10 13:21:00,85.2,78.0,30.03,ESE,120,4.0,11.0,78,0.00,,,0.04,weatherlink.com 1.10,2013-06-10 17:21:00,
2013-06-10 13:36:00,85.4,77.0,30.03,West,260,8.0,9.0,77,0.00,,,0.04,weatherlink.com 1.10,2013-06-10 17:36:00,
2013-06-10 13:51:00,84.7,78.0,30.03,WNW,292,1.0,11.0,81,0.00,,,0.04,weatherlink.com 1.10,2013-06-10 17:51:00,
2013-06-10 14:06:00,84.1,78.0,30.02,WSW,241,3.0,16.0,81,0.00,,,0.04,weatherlink.com 1.10,2013-06-10 18:06:00,
2013-06-10 14:21:00,83.7,77.0,30.02,SW,234,2.0,12.0,81,0.00,,,0.04,weatherlink.com 1.10,2013-06-10 18:21:00,
2013-06-10 14:37:00,85.3,79.0,30.01,SW,216,1.0,10.0,81,0.00,,,0.04,weatherlink.com 1.10,2013-06-10 18:37:00,
2013-06-10 14:51:00,85.4,78.0,30.01,West,275,9.0,11.0,78,0.00,,,0.04,weatherlink.com 1.10,2013-06-10 18:51:00,
2013-06-10 15:07:00,85.2,78.0,30.01,West,278,3.0,13.0,78,0.00,,,0.04,weatherlink.com 1.10,2013-06-10 19:07:00,
2013-06-10 15:22:00,85.3,78.0,30.00,SW,220,1.0,12.0,79,0.00,,,0.04,weatherlink.com 1.10,2013-06-10 19:22:00,
2013-06-10 15:37:00,85.3,78.0,30.00,SW,225,5.0,11.0,78,0.00,,,0.04,weatherlink.com 1.10,2013-06-10 19:37:00,
2013-06-10 15:52:00,84.6,77.0,29.99,WNW,284,2.0,13.0,79,0.00,,,0.04,weatherlink.com 1.10,2013-06-10 19:52:00,
2013-06-10 16:07:00,84.2,77.0,29.98,South,190,4.0,11.0,79,0.00,,,0.04,weatherlink.com 1.10,2013-06-10 20:07:00,
2013-06-10 16:22:00,84.8,77.0,29.97,SW,225,4.0,13.0,77,0.00,,,0.04,weatherlink.com 1.10,2013-06-10 20:22:00,
2013-06-10 16:37:00,84.3,77.0,29.96,West,265,4.0,10.0,78,0.00,,,0.04,weatherlink.com 1.10,2013-06-10 20:37:00,
2013-06-10 17:07:00,83.4,77.0,29.97,SSW,210,2.0,8.0,80,0.00,,,0.04,weatherlink.com 1.10,2013-06-10 21:07:00,
2013-06-10 17:22:00,82.1,76.0,29.97,WSW,244,1.0,7.0,82,0.00,,,0.04,weatherlink.com 1.10,2013-06-10 21:22:00,
2013-06-10 17:37:00,82.0,75.0,29.97,SSW,198,5.0,7.0,80,0.00,,,0.04,weatherlink.com 1.10,2013-06-10 21:37:00,
2013-06-10 17:52:00,81.6,75.0,30.00,WNW,288,1.0,9.0,80,0.00,,,0.04,weatherlink.com 1.10,2013-06-10 21:52:00,
2013-06-10 18:07:00,81.2,75.0,30.00,WSW,238,1.0,4.0,81,0.00,,,0.04,weatherlink.com 1.10,2013-06-10 22:07:00,
2013-06-10 18:22:00,80.9,75.0,30.00,SSE,164,0.0,4.0,82,0.00,,,0.04,weatherlink.com 1.10,2013-06-10 22:22:00,
2013-06-10 18:37:00,80.7,75.0,30.00,WNW,284,3.0,4.0,82,0.00,,,0.04,weatherlink.com 1.10,2013-06-10 22:37:00,
2013-06-10 18:52:00,80.0,73.0,30.01,North,350,5.0,7.0,80,0.00,,,0.04,weatherlink.com 1.10,2013-06-10 22:52:00,
2013-06-10 19:07:00,77.0,72.0,30.01,NE,40,1.0,5.0,85,0.00,,,0.04,weatherlink.com 1.10,2013-06-10 23:07:00,
2013-06-10 19:22:00,76.1,72.0,30.01,NNW,329,0.0,1.0,88,0.00,,,0.04,weatherlink.com 1.10,2013-06-10 23:22:00,
2013-06-10 19:37:00,75.8,72.0,30.00,ESE,113,0.0,2.0,89,0.00,,,0.04,weatherlink.com 1.10,2013-06-10 23:37:00,
2013-06-10 19:52:00,75.5,73.0,30.00,NNE,16,0.0,0.0,90,0.00,,,0.04,weatherlink.com 1.10,2013-06-10 23:52:00,
2013-06-10 20:07:00,75.5,73.0,30.00,East,83,0.0,0.0,90,0.00,,,0.04,weatherlink.com 1.10,2013-06-11 00:07:00,
2013-06-10 20:22:00,75.3,73.0,30.01,East,84,0.0,1.0,91,0.00,,,0.04,weatherlink.com 1.10,2013-06-11 00:22:00,
2013-06-10 20:37:00,75.2,73.0,30.02,WSW,248,0.0,1.0,92,0.00,,,0.04,weatherlink.com 1.10,2013-06-11 00:37:00,
2013-06-10 20:52:00,75.2,73.0,30.01,WSW,248,0.0,0.0,92,0.00,,,0.04,weatherlink.com 1.10,2013-06-11 00:52:00,
2013-06-10 21:07:00,75.3,74.0,30.01,South,182,0.0,3.0,94,0.00,,,0.04,weatherlink.com 1.10,2013-06-11 01:07:00,
2013-06-10 21:22:00,76.6,74.0,30.01,WSW,257,1.0,6.0,92,0.00,,,0.04,weatherlink.com 1.10,2013-06-11 01:22:00,
2013-06-10 21:37:00,77.4,75.0,30.02,West,275,1.0,5.0,91,0.00,,,0.04,weatherlink.com 1.10,2013-06-11 01:37:00,
2013-06-10 21:52:00,77.6,75.0,30.02,WSW,239,1.0,5.0,90,0.00,,,0.04,weatherlink.com 1.10,2013-06-11 01:52:00,
2013-06-10 22:07:00,77.0,75.0,30.02,West,275,2.0,10.0,92,0.09,,,0.13,weatherlink.com 1.10,2013-06-11 02:07:00,
2013-06-10 22:37:00,74.6,72.0,30.04,West,265,4.0,10.0,90,0.12,,,0.16,weatherlink.com 1.10,2013-06-11 02:37:00,
2013-06-10 22:52:00,73.1,71.0,30.04,SW,229,1.0,6.0,93,0.15,,,0.19,weatherlink.com 1.10,2013-06-11 02:52:00,
2013-06-10 23:07:00,72.4,71.0,30.04,WSW,254,0.0,5.0,95,0.10,,,0.23,weatherlink.com 1.10,2013-06-11 03:07:00,
2013-06-10 23:22:00,70.8,69.0,30.02,ENE,75,0.0,5.0,94,0.11,,,0.25,weatherlink.com 1.10,2013-06-11 03:22:00,
2013-06-10 23:37:00,70.1,69.0,30.01,SSE,148,0.0,2.0,95,0.10,,,0.26,weatherlink.com 1.10,2013-06-11 03:37:00,
2013-06-10 23:52:00,69.8,69.0,30.02,WSW,254,1.0,1.0,96,0.07,,,0.26,weatherlink.com 1.10,2013-06-11 03:52:00,